Time,TemperatureF,DewpointF,PressureIn,WindDirection,WindDirectionDegrees,WindSpeedMPH,WindSpeedGustMPH,Humidity,HourlyPrecipIn,Conditions,Clouds,dailyrainin,SoftwareType,DateUTC
2013-03-02 00:08:00,13.1,7.0,30.22,North,349,1.0,5.0,77,0.00,,,0.00,weatherlink.com 1.10,2013-03-02 05:08:00,
2013-03-02 00:23:00,12.8,7.0,30.22,WNW,288,2.0,3.0,78,0.00,,,0.00,weatherlink.com 1.10,2013-03-02 05:23:00,
2013-03-02 00:38:00,12.6,7.0,30.22,NW,318,2.0,7.0,78,0.00,,,0.00,weatherlink.com 1.10,2013-03-02 05:38:00,
2013-03-02 00:53:00,12.4,7.0,30.22,NNE,13,1.0,5.0,78,0.00,,,0.00,weatherlink.com 1.10,2013-03-02 05:53:00,
2013-03-02 01:08:00,12.0,6.0,30.22,NNW,334,0.0,6.0,78,0.00,,,0.00,weatherlink.com 1.10,2013-03-02 06:08:00,
2013-03-02 01:23:00,11.8,7.0,30.23,NE,36,3.0,7.0,79,0.00,,,0.00,weatherlink.com 1.10,2013-03-02 06:23:00,
2013-03-02 01:38:00,11.5,6.0,30.22,NNW,331,4.0,5.0,79,0.00,,,0.00,weatherlink.com 1.10,2013-03-02 06:38:00,
2013-03-02 01:53:00,11.3,6.0,30.23,West,272,0.0,6.0,80,0.00,,,0.00,weatherlink.com 1.10,2013-03-02 06:53:00,
2013-03-02 02:08:00,10.8,6.0,30.23,NNW,332,0.0,5.0,80,0.00,,,0.00,weatherlink.com 1.10,2013-03-02 07:08:00,
2013-03-02 02:23:00,10.2,6.0,30.23,NW,315,1.0,3.0,81,0.00,,,0.00,weatherlink.com 1.10,2013-03-02 07:23:00,
2013-03-02 02:38:00,9.6,5.0,30.23,West,280,0.0,3.0,81,0.00,,,0.00,weatherlink.com 1.10,2013-03-02 07:38:00,
2013-03-02 02:53:00,9.4,5.0,30.22,WNW,290,0.0,4.0,82,0.00,,,0.00,weatherlink.com 1.10,2013-03-02 07:53:00,
2013-03-02 03:08:00,9.8,5.0,30.22,West,281,0.0,5.0,81,0.00,,,0.00,weatherlink.com 1.10,2013-03-02 08:08:00,
2013-03-02 03:23:00,10.0,5.0,30.22,NW,309,1.0,4.0,81,0.00,,,0.00,weatherlink.com 1.10,2013-03-02 08:23:00,
2013-03-02 03:38:00,9.9,5.0,30.21,North,354,2.0,7.0,81,0.00,,,0.00,weatherlink.com 1.10,2013-03-02 08:38:00,
2013-03-02 03:54:00,10.0,5.0,30.21,NW,325,0.0,8.0,81,0.00,,,0.00,weatherlink.com 1.10,2013-03-02 08:54:00,
2013-03-02 04:09:00,10.1,5.0,30.21,NNE,30,2.0,7.0,81,0.00,,,0.00,weatherlink.com 1.10,2013-03-02 09:09:00,
2013-03-02 04:24:00,10.4,5.0,30.21,NW,316,9.0,9.0,80,0.00,,,0.00,weatherlink.com 1.10,2013-03-02 09:24:00,
2013-03-02 04:39:00,10.5,5.0,30.21,NW,307,4.0,8.0,79,0.00,,,0.00,weatherlink.com 1.10,2013-03-02 09:39:00,
2013-03-02 04:54:00,10.3,5.0,30.20,NNW,347,8.0,12.0,79,0.00,,,0.00,weatherlink.com 1.10,2013-03-02 09:54:00,
2013-03-02 05:09:00,10.2,5.0,30.20,NW,304,6.0,11.0,79,0.00,,,0.00,weatherlink.com 1.10,2013-03-02 10:09:00,
2013-03-02 05:24:00,10.1,5.0,30.20,WNW,287,4.0,8.0,79,0.00,,,0.00,weatherlink.com 1.10,2013-03-02 10:24:00,
2013-03-02 05:39:00,10.0,5.0,30.20,West,281,5.0,8.0,80,0.00,,,0.00,weatherlink.com 1.10,2013-03-02 10:39:00,
2013-03-02 06:09:00,9.7,5.0,30.20,West,274,2.0,10.0,80,0.00,,,0.00,weatherlink.com 1.10,2013-03-02 11:09:00,
2013-03-02 06:24:00,9.5,5.0,30.20,NW,307,2.0,9.0,80,0.00,,,0.00,weatherlink.com 1.10,2013-03-02 11:24:00,
2013-03-02 06:39:00,9.4,4.0,30.21,WNW,287,5.0,10.0,80,0.00,,,0.00,weatherlink.com 1.10,2013-03-02 11:39:00,
2013-03-02 06:54:00,9.1,4.0,30.21,NNW,345,2.0,8.0,80,0.00,,,0.00,weatherlink.com 1.10,2013-03-02 11:54:00,
2013-03-02 07:09:00,8.9,4.0,30.21,NNW,342,1.0,12.0,81,0.00,,,0.00,weatherlink.com 1.10,2013-03-02 12:09:00,
2013-03-02 07:24:00,8.8,4.0,30.21,WNW,283,3.0,9.0,81,0.00,,,0.00,weatherlink.com 1.10,2013-03-02 12:24:00,
2013-03-02 07:39:00,8.7,4.0,30.21,NE,39,1.0,6.0,82,0.00,,,0.00,weatherlink.com 1.10,2013-03-02 12:39:00,
2013-03-02 07:54:00,8.7,4.0,30.21,NNW,338,8.0,10.0,81,0.00,,,0.00,weatherlink.com 1.10,2013-03-02 12:54:00,
2013-03-02 08:09:00,8.9,4.0,30.21,NNW,335,4.0,9.0,81,0.00,,,0.00,weatherlink.com 1.10,2013-03-02 13:09:00,
2013-03-02 08:24:00,9.0,4.0,30.21,NNW,338,3.0,13.0,81,0.00,,,0.00,weatherlink.com 1.10,2013-03-02 13:24:00,
2013-03-02 08:39:00,9.1,4.0,30.21,NNW,330,3.0,11.0,80,0.00,,,0.00,weatherlink.com 1.10,2013-03-02 13:39:00,
2013-03-02 08:54:00,9.4,4.0,30.21,NW,316,6.0,10.0,80,0.00,,,0.00,weatherlink.com 1.10,2013-03-02 13:54:00,
2013-03-02 09:09:00,9.9,5.0,30.21,NNE,25,5.0,11.0,81,0.00,,,0.00,weatherlink.com 1.10,2013-03-02 14:09:00,
2013-03-02 09:24:00,11.2,6.0,30.21,North,351,13.0,13.0,80,0.00,,,0.00,weatherlink.com 1.10,2013-03-02 14:24:00,
2013-03-02 09:39:00,12.1,7.0,30.21,North,11,3.0,10.0,78,0.00,,,0.00,weatherlink.com 1.10,2013-03-02 14:39:00,
2013-03-02 09:54:00,13.1,7.0,30.21,NW,310,6.0,10.0,77,0.00,,,0.00,weatherlink.com 1.10,2013-03-02 14:54:00,
2013-03-02 10:09:00,13.9,7.0,30.20,NNE,15,3.0,10.0,75,0.00,,,0.00,weatherlink.com 1.10,2013-03-02 15:09:00,
2013-03-02 10:24:00,14.0,7.0,30.20,NNW,340,1.0,12.0,73,0.00,,,0.00,weatherlink.com 1.10,2013-03-02 15:24:00,
2013-03-02 10:39:00,14.3,7.0,30.20,NE,47,2.0,10.0,74,0.00,,,0.00,weatherlink.com 1.10,2013-03-02 15:39:00,
2013-03-02 10:54:00,14.5,7.0,30.20,NNE,27,4.0,11.0,73,0.00,,,0.00,weatherlink.com 1.10,2013-03-02 15:54:00,
2013-03-02 11:09:00,15.3,7.0,30.20,West,281,3.0,11.0,71,0.00,,,0.00,weatherlink.com 1.10,2013-03-02 16:09:00,
2013-03-02 11:24:00,15.6,7.0,30.20,NE,34,5.0,10.0,69,0.00,,,0.00,weatherlink.com 1.10,2013-03-02 16:24:00,
2013-03-02 11:40:00,16.2,8.0,30.20,NW,311,4.0,12.0,69,0.00,,,0.00,weatherlink.com 1.10,2013-03-02 16:40:00,
2013-03-02 11:55:00,17.1,8.0,30.19,WNW,300,6.0,10.0,67,0.00,,,0.00,weatherlink.com 1.10,2013-03-02 16:55:00,
2013-03-02 12:10:00,17.8,8.0,30.20,NW,322,6.0,8.0,65,0.00,,,0.00,weatherlink.com 1.10,2013-03-02 17:10:00,
2013-03-02 12:25:00,18.3,8.0,30.19,West,281,6.0,6.0,63,0.00,,,0.00,weatherlink.com 1.10,2013-03-02 17:25:00,
2013-03-02 12:40:00,18.5,8.0,30.18,WNW,285,6.0,11.0,64,0.00,,,0.00,weatherlink.com 1.10,2013-03-02 17:40:00,
2013-03-02 12:55:00,18.7,8.0,30.17,NW,319,1.0,11.0,63,0.00,,,0.00,weatherlink.com 1.10,2013-03-02 17:55:00,
2013-03-02 13:10:00,19.4,8.0,30.17,WNW,294,5.0,11.0,62,0.00,,,0.00,weatherlink.com 1.10,2013-03-02 18:10:00,
2013-03-02 13:25:00,19.8,9.0,30.16,WNW,283,1.0,9.0,62,0.00,,,0.00,weatherlink.com 1.10,2013-03-02 18:25:00,
2013-03-02 13:40:00,20.2,9.0,30.16,North,352,7.0,10.0,61,0.00,,,0.00,weatherlink.com 1.10,2013-03-02 18:40:00,
2013-03-02 13:55:00,21.1,9.0,30.15,NW,319,3.0,12.0,60,0.00,,,0.00,weatherlink.com 1.10,2013-03-02 18:55:00,
2013-03-02 14:10:00,21.5,9.0,30.15,WSW,240,4.0,11.0,60,0.00,,,0.00,weatherlink.com 1.10,2013-03-02 19:10:00,
2013-03-02 14:25:00,21.9,10.0,30.15,West,262,3.0,10.0,60,0.00,,,0.00,weatherlink.com 1.10,2013-03-02 19:25:00,
2013-03-02 14:40:00,23.0,10.0,30.14,NW,312,3.0,14.0,59,0.00,,,0.00,weatherlink.com 1.10,2013-03-02 19:40:00,
2013-03-02 14:55:00,23.2,10.0,30.14,WNW,287,7.0,11.0,58,0.00,,,0.00,weatherlink.com 1.10,2013-03-02 19:55:00,
2013-03-02 15:10:00,23.5,11.0,30.13,WNW,294,4.0,12.0,59,0.00,,,0.00,weatherlink.com 1.10,2013-03-02 20:10:00,
2013-03-02 15:25:00,24.3,11.0,30.13,North,9,3.0,10.0,57,0.00,,,0.00,weatherlink.com 1.10,2013-03-02 20:25:00,
2013-03-02 15:40:00,24.5,11.0,30.13,WNW,302,4.0,9.0,57,0.00,,,0.00,weatherlink.com 1.10,2013-03-02 20:40:00,
2013-03-02 15:55:00,24.4,11.0,30.12,NNE,19,4.0,13.0,57,0.00,,,0.00,weatherlink.com 1.10,2013-03-02 20:55:00,
2013-03-02 16:10:00,24.6,12.0,30.12,NNW,327,8.0,10.0,58,0.00,,,0.00,weatherlink.com 1.10,2013-03-02 21:10:00,
2013-03-02 16:25:00,23.8,12.0,30.12,WNW,294,6.0,11.0,60,0.00,,,0.00,weatherlink.com 1.10,2013-03-02 21:25:00,
2013-03-02 16:40:00,24.0,12.0,30.12,WNW,285,4.0,13.0,61,0.00,,,0.00,weatherlink.com 1.10,2013-03-02 21:40:00,
2013-03-02 16:55:00,23.7,13.0,30.12,West,271,0.0,9.0,64,0.00,,,0.00,weatherlink.com 1.10,2013-03-02 21:55:00,
2013-03-02 17:10:00,23.2,14.0,30.13,NNE,13,1.0,11.0,67,0.00,,,0.00,weatherlink.com 1.10,2013-03-02 22:10:00,
2013-03-02 17:26:00,23.1,14.0,30.13,WNW,297,6.0,10.0,68,0.00,,,0.00,weatherlink.com 1.10,2013-03-02 22:26:00,
2013-03-02 17:41:00,22.0,14.0,30.13,WNW,294,4.0,10.0,71,0.00,,,0.00,weatherlink.com 1.10,2013-03-02 22:41:00,
2013-03-02 17:56:00,20.9,14.0,30.13,WNW,293,7.0,11.0,73,0.00,,,0.00,weatherlink.com 1.10,2013-03-02 22:56:00,
2013-03-02 18:11:00,19.9,14.0,30.14,NNW,330,4.0,13.0,77,0.00,,,0.00,weatherlink.com 1.10,2013-03-02 23:11:00,
2013-03-02 18:26:00,19.2,14.0,30.14,NW,316,3.0,17.0,79,0.00,,,0.00,weatherlink.com 1.10,2013-03-02 23:26:00,
2013-03-02 18:41:00,18.6,13.0,30.13,NW,305,7.0,11.0,80,0.00,,,0.00,weatherlink.com 1.10,2013-03-02 23:41:00,
2013-03-02 18:56:00,18.4,14.0,30.13,WNW,283,1.0,7.0,81,0.00,,,0.00,weatherlink.com 1.10,2013-03-02 23:56:00,
2013-03-02 19:11:00,18.3,13.0,30.13,NW,316,1.0,8.0,81,0.00,,,0.00,weatherlink.com 1.10,2013-03-03 00:11:00,
2013-03-02 19:26:00,18.3,13.0,30.13,NW,311,4.0,7.0,81,0.00,,,0.00,weatherlink.com 1.10,2013-03-03 00:26:00,
2013-03-02 19:41:00,18.3,13.0,30.13,WNW,283,1.0,9.0,80,0.00,,,0.00,weatherlink.com 1.10,2013-03-03 00:41:00,
2013-03-02 19:56:00,18.3,13.0,30.12,WNW,297,1.0,7.0,80,0.00,,,0.00,weatherlink.com 1.10,2013-03-03 00:56:00,
2013-03-02 20:11:00,18.2,13.0,30.12,NNW,338,0.0,6.0,79,0.00,,,0.00,weatherlink.com 1.10,2013-03-03 01:11:00,
2013-03-02 20:26:00,18.2,13.0,30.12,WNW,302,1.0,8.0,80,0.00,,,0.00,weatherlink.com 1.10,2013-03-03 01:26:00,
2013-03-02 20:41:00,17.9,13.0,30.12,NNW,328,2.0,4.0,80,0.00,,,0.00,weatherlink.com 1.10,2013-03-03 01:41:00,
2013-03-02 20:56:00,17.7,13.0,30.12,WNW,290,2.0,7.0,80,0.00,,,0.00,weatherlink.com 1.10,2013-03-03 01:56:00,
2013-03-02 21:11:00,17.1,12.0,30.12,NW,326,2.0,4.0,81,0.00,,,0.00,weatherlink.com 1.10,2013-03-03 02:11:00,
2013-03-02 21:41:00,15.9,12.0,30.12,WNW,300,2.0,4.0,83,0.00,,,0.00,weatherlink.com 1.10,2013-03-03 02:41:00,
2013-03-02 21:56:00,15.5,12.0,30.12,NE,39,0.0,5.0,84,0.00,,,0.00,weatherlink.com 1.10,2013-03-03 02:56:00,
2013-03-02 22:11:00,14.4,10.0,30.12,ESE,105,0.0,3.0,84,0.00,,,0.00,weatherlink.com 1.10,2013-03-03 03:11:00,
2013-03-02 22:26:00,13.9,11.0,30.11,West,281,1.0,3.0,87,0.00,,,0.00,weatherlink.com 1.10,2013-03-03 03:26:00,
2013-03-02 22:41:00,13.4,10.0,30.11,WNW,300,0.0,4.0,86,0.00,,,0.00,weatherlink.com 1.10,2013-03-03 03:41:00,
2013-03-02 22:56:00,12.6,10.0,30.11,NW,305,0.0,2.0,88,0.00,,,0.00,weatherlink.com 1.10,2013-03-03 03:56:00,
2013-03-02 23:11:00,12.2,9.0,30.11,WNW,302,0.0,2.0,88,0.00,,,0.00,weatherlink.com 1.10,2013-03-03 04:11:00,
2013-03-02 23:26:00,11.4,9.0,30.11,WNW,284,0.0,1.0,89,0.00,,,0.00,weatherlink.com 1.10,2013-03-03 04:26:00,
2013-03-02 23:41:00,11.4,9.0,30.11,WNW,300,2.0,3.0,90,0.00,,,0.00,weatherlink.com 1.10,2013-03-03 04:41:00,
2013-03-02 23:56:00,11.1,8.0,30.10,WNW,294,0.0,2.0,88,0.00,,,0.00,weatherlink.com 1.10,2013-03-03 04:56:00,